www.pogodaiklimat.ru

Погода и климат >> Архив погоды >> Норвегия >> Брённёйсунн аэропорт


ПОГОДА в Брённёйсунн аэропорту

  • Прогноз погоды в Брённёйсунн аэропорту
  • Монитор погоды в Брённёйсунн аэропорту

АРХИВ ПОГОДЫ в Брённёйсунн аэропорту

Время (UTC), дата Ветер
(напр.,м/с)
 
Видим.   Явления Облачность Т
(С)
Тd
(С)
f
(%)
Тe
(С)
Тes
(С)
Комфортность P
(гПа)
Po
(гПа)
Тmin
(С)
Tmax
(С)
R
(мм)
R24
(мм)
S
(см)
19 10.06 С 4
{6}
н/о н/о +8.4 +5.2 80 +5 +5 1021.9 1021.0
20 10.06
{5}
н/о н/о +8.2 +4.8 79 1022.4 1021.5
21 10.06
{6}
н/о н/о +7.8 +4.6 80 1023.0 1022.1
22 10.06 С 4
{6}
н/о н/о +8.0 +3.5 73 +5 +5 1023.8 1022.9
23 10.06 С 3
{7}
н/о н/о +7.7 +3.2 73 +5 +5 1024.3 1023.4
00 11.06 С 1
{7}
н/о н/о +7.4 +2.9 73 +7 +7 1024.8 1023.8
01 11.06 З 1
{3}
н/о н/о +7.4 +3.5 76 +7 +7 1025.2 1024.3
02 11.06 С 2
{4}
н/о н/о +6.4 +5.4 93 +4 +4 1025.4 1024.5
03 11.06 Ю 1
{2}
н/о н/о +6.5 +5.6 94 +5 +5 1025.9 1024.9
04 11.06 С 2
{3}
н/о н/о +7.3 +5.8 90 +5 +5 1026.0 1025.0
05 11.06 СВ 1
{3}
н/о н/о +8.2 +6.0 86 +7 +7 1026.8 1025.9
06 11.06 СВ 2
{4}
н/о н/о +8.3 +5.4 82 +6 +6 1027.4 1026.5 +6.4 +8.7
07 11.06 штиль 0
{3}
н/о н/о +8.6 +5.5 81 +8 +8 1028.2 1027.2
08 11.06 С 1
{2}
н/о н/о +9.4 +4.4 71 +9 +9 1028.7 1027.8
09 11.06 С 3
{5}
н/о н/о +9.4 +4.0 69 +7 +7 1029.1 1028.1
10 11.06 С 4
{5}
н/о н/о +10.0 +4.2 67 +8 +8 1029.5 1028.5
11 11.06 С 4
{7}
н/о н/о +10.5 +4.2 65 +8 +8 1029.6 1028.7
12 11.06 С 6
{9}
н/о н/о +10.4 +4.3 66 +7 +7 1029.7 1028.8
13 11.06 С 7
{9}
н/о н/о +11.1 +5.0 66 +8 +8 1029.7 1028.8
14 11.06 С 7
{10}
н/о н/о +11.1 +4.8 65 +8 +8 1029.6 1028.7
15 11.06 С 6
{10}
н/о н/о +10.8 +4.3 64 +8 +8 1029.7 1028.8
16 11.06 С 6
{9}
н/о н/о +10.8 +3.8 62 +8 +8 1029.9 1028.9
17 11.06 С 6
{8}
н/о н/о +11.0 +4.7 65 +8 +8 1030.1 1029.1
18 11.06 С 6
{10}
н/о н/о +10.4 +4.8 68 +7 +7 1030.0 1029.1 +8.2 +11.7
19 11.06 С 5
{9}
н/о н/о +10.1 +5.1 71 +7 +7 1030.0 1029.1
20 11.06 С 4
{8}
н/о н/о +9.9 +5.5 74 +7 +7 1030.0 1029.1
21 11.06 С 4
{6}
н/о н/о +9.1 +4.9 75 +6 +6 1029.9 1029.0
22 11.06 С 3
{5}
н/о н/о +7.8 +4.8 81 +5 +5 1029.6 1028.7
23 11.06 С 3
{4}
н/о н/о +6.4 +4.4 87 +3 +3 1029.6 1028.6
00 12.06 СВ 1
{9}
н/о н/о +6.0 +4.7 91 +5 +5 1029.3 1028.4
01 12.06 С 1
{2}
н/о н/о +5.1 +4.2 94 +4 +4 1029.1 1028.2
02 12.06 СВ 2
{3}
н/о н/о +6.0 +5.0 93 +3 +3 1028.9 1028.0
03 12.06 СВ 1
{2}
н/о н/о +7.8 +5.8 87 +7 +7 1028.6 1027.7
04 12.06 штиль 0
{1}
н/о н/о +9.8 +6.3 79 +9 +9 1028.1 1027.2
05 12.06 С 3
{4}
н/о н/о +10.4 +6.4 76 +8 +8 1027.7 1026.7
06 12.06 С 4
{6}
н/о н/о +11.1 +6.7 74 +9 +9 1027.4 1026.5 +5.1 +11.6
07 12.06 С 4
{5}
н/о н/о +12.1 +7.6 74 +10 +10 1027.2 1026.2
08 12.06 С 5
{7}
н/о н/о +12.6 +7.3 70 +10 +10 1026.9 1025.9
09 12.06 С 4
{6}
н/о н/о +13.9 +7.4 65 +13 +13 1026.4 1025.5
10 12.06 С 5
{7}
н/о н/о +14.7 +6.5 58 +13 +13 1026.0 1025.0
11 12.06 С 6
{9}
н/о н/о +15.1 +6.7 57 +14 +14 1025.5 1024.6
12 12.06
{9}
н/о н/о +15.2 +6.5 56 1024.9 1024.0
13 12.06 С 7
{9}
н/о н/о +15.8 +8.6 62 +14 +14 1023.9 1022.9
14 12.06 С 7
{10}
н/о н/о +16.2 +7.9 58 +15 +15 1023.0 1022.1
15 12.06 С 6
{10}
н/о н/о +15.4 +8.4 63 +14 +14 1022.3 1021.4
16 12.06 С 6
{9}
н/о н/о +15.7 +8.9 64 +14 +14 1021.7 1020.8
17 12.06 С 6
{9}
н/о н/о +14.7 +8.7 67 +13 +13 1021.5 1020.6
18 12.06 С 3
{10}
н/о н/о +13.8 +9.9 77 +13 +13 1021.5 1020.5 +11.0 +16.6
19 12.06 С 2
{4}
н/о н/о +12.9 +9.5 80 +12 +12 1021.1 1020.1
20 12.06
{3}
н/о н/о +12.6 +9.6 82 1021.1 1020.1
21 12.06 ЮВ 4
{9}
н/о н/о +13.9 +5.3 56 +13 +13 1020.8 1019.8
22 12.06 ЮВ 3
{8}
н/о н/о +13.6 +4.5 54 +13 +13 1020.6 1019.7
23 12.06 В 2
{5}
н/о н/о +13.2 +2.5 48 +13 +13 1020.4 1019.5
00 13.06 ЮВ 6
{11}
н/о н/о +13.4 +2.4 47 +11 +11 1020.1 1019.2
01 13.06 В 8
{11}
н/о н/о +12.8 +0.9 44 +10 +10 1019.7 1018.7
02 13.06 В 7
{11}
н/о н/о +11.7 +3.0 55 +9 +9 1019.1 1018.2
03 13.06 В 7
{9}
н/о н/о +11.9 +2.1 51 +9 +9 1018.2 1017.2
04 13.06 В 5
{10}
н/о н/о +11.9 +2.1 51 +10 +10 1017.9 1017.0
05 13.06 В 7
{11}
н/о н/о +10.9 +4.2 63 +8 +8 1018.0 1017.1
06 13.06 СВ 5
{11}
н/о н/о +10.1 +5.3 72 +7 +7 1017.2 1016.3 +9.7 +14.7
07 13.06 ЮВ 8
{13}
н/о н/о +12.0 +4.5 60 +9 +9 1017.1 1016.1
08 13.06 В 7
{14}
н/о н/о +13.0 +4.5 56 +11 +11 1016.7 1015.8
09 13.06 В 4
{10}
н/о н/о +14.7 +3.2 46 +14 +14 1016.6 1015.7
10 13.06 В 6
{10}
н/о н/о +15.5 +5.7 52 +14 +14 1016.0 1015.1
11 13.06 В 7
{14}
н/о н/о +16.0 +5.3 49 +15 +15 1016.0 1015.1
12 13.06 В 5
{14}
н/о н/о +16.3 +6.5 52 +15 +15 1015.9 1015.0
13 13.06 В 10
{15}
н/о н/о +16.2 +6.4 52 +14 +14 1015.6 1014.7
14 13.06 В 8
{16}
н/о н/о +16.5 +7.5 55 +15 +15 1015.5 1014.6
15 13.06 ЮВ 10
{17}
н/о н/о +16.2 +7.4 56 +14 +14 1014.9 1014.0
16 13.06 В 9
{15}
н/о н/о +15.2 +7.7 61 +13 +13 1015.5 1014.6
17 13.06 В 5
{13}
н/о н/о +15.6 +7.4 58 +14 +14 1015.6 1014.7
18 13.06 В 11
{17}
н/о н/о +15.1 +7.4 60 +13 +13 1015.4 1014.5 +10.1 +17.1
19 13.06 В 9
{14}
н/о н/о +15.0 +8.3 64 +13 +13 1016.0 1015.0
20 13.06 В 7
{12}
н/о н/о +14.4 +8.1 66 +12 +12 1016.3 1015.4
21 13.06 В 4
{10}
н/о н/о +14.4 +7.7 64 +13 +13 1016.8 1015.8
22 13.06 ЮВ 6
{10}
н/о н/о +13.9 +7.9 67 +12 +12 1017.4 1016.5
23 13.06 ЮВ 5
{13}
н/о н/о +13.5 +7.9 69 +12 +12 1017.5 1016.6
00 14.06 В 4
{14}
н/о н/о +13.7 +7.5 66 +12 +12 1017.8 1016.9
01 14.06 В 5
{9}
н/о н/о +13.5 +7.7 68 +12 +12 1017.8 1016.9
02 14.06 В 4
{7}
н/о н/о +13.3 +8.2 71 +12 +12 1017.8 1016.9
03 14.06 В 3
{7}
н/о н/о +12.7 +8.6 76 +11 +11 1017.9 1016.9
04 14.06 В 3
{7}
н/о н/о +12.1 +9.7 85 +10 +10 1017.9 1017.0
05 14.06 СВ 4
{7}
н/о н/о +11.7 +10.0 89 +9 +9 1017.4 1016.5
06 14.06 СВ 3
{9}
н/о н/о +12.2 +10.1 87 +11 +11 1018.0 1017.1 +11.7 +15.2
07 14.06 В 3
{5}
н/о н/о +12.9 +10.4 85 +11 +11 1018.1 1017.2
08 14.06 В 3
{7}
н/о н/о +12.9 +10.1 83 +12 +12 1018.1 1017.2
09 14.06 В 2
{5}
н/о н/о +13.5 +10.5 82 +13 +13 1018.4 1017.5
10 14.06 СЗ 1
{3}
н/о н/о +14.3 +11.1 81 +15 +15 1018.5 1017.6
11 14.06 В 1
{2}
н/о н/о +13.9 +10.9 82 +14 +14 1018.3 1017.4
12 14.06 СВ 2
{7}
н/о н/о +14.6 +11.9 84 +14 +14 1018.2 1017.3
13 14.06 штиль 0
{3}
н/о н/о +14.8 +12.1 84 +15 +15 1018.1 1017.2
14 14.06 СЗ 2
{4}
н/о н/о +14.1 +11.8 86 +14 +14 1017.8 1016.9
15 14.06 СЗ 3
{3}
н/о н/о +12.9 +11.5 91 +11 +11 1017.7 1016.8
16 14.06 С 3
{4}
н/о н/о +13.1 +11.8 92 +12 +12 1017.6 1016.6
17 14.06 СВ 2
{4}
н/о н/о +13.7 +11.9 89 +13 +13 1017.4 1016.4
18 14.06 СВ 1
{4}
н/о н/о +13.5 +12.1 91 +14 +14 1017.2 1016.3 +12.2 +15.2
19 14.06 СЗ 1
{2}
н/о н/о +13.2 +11.9 92 +13 +13 1017.1 1016.2
20 14.06 С 2
{2}
н/о н/о +12.4 +10.8 90 +11 +11 1017.4 1016.5
21 14.06 СЗ 1
{3}
н/о н/о +12.3 +10.9 91 +12 +12 1017.4 1016.5
22 14.06 штиль 0
{3}
н/о н/о +12.1 +11.2 94 +11 +11 1017.3 1016.4
23 14.06 штиль 0
{2}
н/о н/о +12.1 +11.3 95 +11 +11 1017.3 1016.3
00 15.06 СЗ 2
{3}
н/о н/о +11.8 +11.0 95 +11 +11 1017.5 1016.6
01 15.06 СВ 1
{3}
н/о н/о +11.4 +10.5 94 +11 +11 1017.6 1016.7
02 15.06 СЗ 1
{2}
н/о н/о +11.8 +11.0 95 +12 +12 1017.5 1016.5
03 15.06 Ю 1
{1}
н/о н/о +11.8 +11.0 95 +12 +12 1017.3 1016.4
04 15.06 штиль 0
{1}
н/о н/о +12.8 +12.0 95 +12 +12 1017.5 1016.6
05 15.06 штиль 0
{1}
н/о н/о +13.0 +11.9 93 +12 +12 1017.8 1016.9
06 15.06 штиль 0
{3}
н/о н/о +13.5 +12.2 92 +13 +13 1018.1 1017.2 +11.4 +13.7
07 15.06 Ю 1
{2}
н/о н/о +13.8 +12.4 91 +14 +14 1018.4 1017.5
08 15.06 Ю 2
{2}
н/о н/о +14.4 +12.3 87 +14 +14 1018.8 1017.9
09 15.06 СЗ 1
{2}
н/о н/о +14.4 +11.6 83 +15 +15 1019.3 1018.4
10 15.06 ЮЗ 1
{3}
н/о н/о +14.9 +12.0 83 +15 +15 1019.5 1018.6
11 15.06 ЮЗ 2
{3}
н/о н/о +15.3 +11.9 80 +15 +15 1019.7 1018.8
12 15.06 З 2
{4}
н/о н/о +15.1 +9.9 71 +15 +15 1020.0 1019.1
13 15.06 З 2
{3}
н/о н/о +15.1 +10.3 73 +15 +15 1020.0 1019.0
14 15.06 СЗ 1
{2}
н/о н/о +16.5 +10.6 68 +17 +17 1019.6 1018.7
15 15.06 С 2
{3}
н/о н/о +15.3 +10.3 72 +15 +15 1019.3 1018.4
16 15.06 С 2
{4}
н/о н/о +14.0 +10.0 77 +14 +14 1019.1 1018.1
17 15.06 С 2
{4}
н/о н/о +14.0 +10.4 79 +14 +14 1018.7 1017.8
18 15.06 С 2
{4}
н/о н/о +13.3 +9.9 80 +13 +13 1018.5 1017.6 +13.3 +16.8
19 15.06 С 3
{5}
н/о н/о +12.5 +9.5 82 +11 +11 1018.4 1017.4
20 15.06 С 3
{5}
н/о н/о +11.6 +9.9 89 +10 +10 1018.0 1017.1
21 15.06
{5}
н/о н/о +11.0 +9.8 92 1017.7 1016.7
22 15.06 С 4
{6}
н/о н/о +10.6 +9.5 93 +8 +8 1017.5 1016.6
23 15.06
{5}
н/о н/о +10.1 +9.3 95 1017.2 1016.3
00 16.06 С 2
{6}
н/о н/о +9.8 +9.0 95 +8 +8 1016.9 1015.9
01 16.06 С 2
{4}
н/о н/о +8.9 +8.3 96 +7 +7 1016.2 1015.2
02 16.06 С 3
{4}
н/о н/о +9.6 +9.0 96 +7 +7 1015.5 1014.6
03 16.06 штиль 0
{3}
н/о н/о +11.1 +10.0 93 +10 +10 1015.2 1014.3
04 16.06 С 4
{5}
н/о н/о +11.4 +9.8 90 +9 +9 1015.1 1014.2
05 16.06 С 4
{5}
н/о н/о +12.3 +10.2 87 +10 +10 1014.5 1013.6
06 16.06 С 4
{5}
н/о н/о +12.8 +10.2 84 +11 +11 1014.2 1013.3 +8.6 +13.3
07 16.06 С 3
{5}
н/о н/о +13.4 +10.6 83 +12 +12 1013.9 1013.0
08 16.06 С 3
{5}
н/о н/о +14.3 +10.7 79 +13 +13 1013.6 1012.7
09 16.06 С 4
{5}
н/о н/о +15.3 +11.3 77 +14 +14 1013.1 1012.2
10 16.06 С 5
{6}
н/о н/о +15.7 +11.1 74 +15 +15 1012.7 1011.8
11 16.06 С 6
{8}
н/о н/о +15.8 +10.6 71 +14 +14 1012.3 1011.4
12 16.06 С 5
{8}
н/о н/о +17.3 +11.1 67 +17 +17 1012.0 1011.1
13 16.06
{8}
н/о н/о +17.2 +11.0 67 1011.7 1010.8
14 16.06 С 6
{8}
н/о н/о +17.1 +11.4 69 +16 +16 1011.3 1010.4
15 16.06 С 5
{8}
н/о н/о +17.1 +11.6 70 +16 +16 1011.0 1010.1
16 16.06 С 5
{7}
н/о н/о +16.3 +11.5 73 +15 +15 1010.7 1009.8
17 16.06
{7}
н/о н/о +15.8 +11.0 73 1010.4 1009.5
18 16.06 С 4
{8}
н/о н/о +14.1 +10.3 78 +13 +13 1010.6 1009.7 +12.3 +17.7
19 16.06 С 4
{6}
н/о н/о +12.9 +9.9 82 +11 +11 1010.8 1009.9
20 16.06 С 2
{5}
н/о н/о +11.9 +9.6 86 +11 +11 1011.5 1010.5
21 16.06 С 2
{5}
н/о н/о +11.1 +9.7 91 +10 +10 1011.8 1010.9
22 16.06 СЗ 2
{3}
н/о н/о +10.7 +9.6 93 +9 +9 1011.9 1011.0
23 16.06 СЗ 2
{3}
н/о н/о +10.4 +9.3 93 +9 +9 1012.6 1011.6
00 17.06 З 1
{6}
н/о н/о +10.3 +9.4 94 +10 +10 1012.5 1011.5
01 17.06 ЮЗ 4
{7}
н/о н/о +10.3 +9.4 94 +8 +8 1012.6 1011.7
02 17.06 ЮЗ 4
{7}
н/о н/о +10.3 +9.2 93 +8 +8 1012.9 1012.0
03 17.06 ЮЗ 2
{4}
н/о н/о +10.4 +9.2 92 +9 +9 1013.2 1012.3
04 17.06 ЮЗ 2
{4}
н/о н/о +10.8 +9.4 91 +9 +9 1012.9 1012.0
05 17.06 ЮЗ 2
{4}
н/о н/о +11.2 +9.5 89 +10 +10 1012.8 1011.9
06 17.06 ЮЗ 2
{7}
н/о н/о +11.1 +9.5 90 +10 +10 1012.8 1011.9 +10.3 +14.3
07 17.06 З 2
{3}
н/о н/о +10.7 +9.3 91 +9 +9 1013.1 1012.2
08 17.06 ЮЗ 2
{4}
н/о н/о +10.5 +9.9 96 +9 +9 1013.3 1012.4
09 17.06 ЮЗ 3
{4}
н/о н/о +10.9 +10.3 96 +9 +9 1013.4 1012.4
10 17.06 ЮЗ 3
{4}
н/о н/о +10.7 +9.6 93 +9 +9 1013.6 1012.6
11 17.06 ЮЗ 3
{4}
н/о н/о +11.0 +9.8 92 +9 +9 1013.8 1012.8
12 17.06 ЮЗ 2
{4}
н/о н/о +11.2 +9.8 91 +10 +10 1014.0 1013.1
13 17.06 З 3
{4}
н/о н/о +12.8 +10.5 86 +11 +11 1013.6 1012.7
14 17.06 Ю 3
{4}
н/о н/о +11.4 +10.2 92 +9 +9 1013.7 1012.8
15 17.06 Ю 3
{4}
н/о н/о +11.2 +10.4 95 +9 +9 1013.5 1012.6
16 17.06 З 2 н/о н/о +12.0 +10.1 88 +11 +11 1013.2 1012.3
17 17.06 З 2
{3}
н/о н/о +12.5 +9.9 84 +12 +12 1012.7 1011.8
18 17.06 З 2
{4}
н/о н/о +13.3 +9.7 79 +13 +13 1012.3 1011.4 +10.4 +13.5

 

Местоположение метеостанции Брённёйсунн аэропорт (Норвегия): широта 65.46 долгота 12.22 высота над уровнем моря 9 м.

В архиве по умолчанию представлена погода в Брённёйсунн аэропорту за последнюю неделю. Архивные данные за месяц целиком и за предыдущие месяцы, начиная с января 2011 года, Вы можете получить, выбрав интересующий диапазон дат из раскрывающегося списка и нажав кнопку "Ввод!".


*Определитесь, кто Вы:
робот инопланетянин человек

Внимание! Время в таблицах - всемирное. Для получения местного времени необходимо прибавить поправку, которая равна 1 ч.

Смотрите также архив погоды в соседних городах и на ближайших метеорологических станциях:

Погода на Сомна-Квалёйа (Норвегия) (29 км)
Погода в Вега-Валсё (Норвегия) (32 км)
Погода в Хьётте (Норвегия) (42 км)
Погода в Лаксфорсе (Норвегия) (52 км)
Погода в Саннесшёэн аэропорту (Норвегия) (57 км)
Погода в Мосьен аэропорту (Норвегия) (58 км)
Погода в Маяватн (Норвегия) (62 км)
Погода на Маяке Sklinna (Норвегия) (64 км)
Погода в Намсскугане (Норвегия) (85 км)
Погода в Рорвик аэропорту (Норвегия) (86 км)

Пояснения к столбцам:

Ветер - указаны скорость ветра в м/с - средняя за 10 мин, порывы в срок и между сроками (в фигурных скобках) и направление, откуда дует ветер: С - северный, СВ - северо-восточный, В - восточный, ЮВ - юго-восточный, Ю - южный, ЮЗ - юго-западный, З - западный, СЗ - северо-западный.
Видимость - горизонтальная дальность видимости в метрах или километрах. При видимости от 1 до 10 км при отсутствии осадков обычно наблюдается дымка, при ухудшении видимости до 1 км и менее - туман. В сухую погоду видимость может ухудшаться дымом, пылью или мглою.
Явления - указаны атмосферные явления, наблюдавшиеся в срок или в последний час перед сроком; фигурными скобками обозначены явления, наблюдавшиеся между сроками (за 1-3 часа до срока); квадратными скобками обозначены град или гололедные отложения с указанием их диаметра в мм.
Облачность - указаны через наклонную черту общая и нижняя облачность в баллах и высота нижней границы облаков в метрах; квадратными скобками обозначены формы облаков: Ci - перистые, Cs - перисто-слоистые, Cc - перисто-кучевые, Ac - высококучевые, As - высокослоистые, Sc - слоисто-кучевые, Ns - слоисто-дождевые, Cu - кучевые, Cb - кучево-дождевые. Подробнее классификацию облаков см. в Атласе облаков (PDF).
T - Температура воздуха - температура, измеренная на высоте 2 м над землей.
Td - Температура точки росы - температура, при понижении до которой содержащийся в воздухе водяной пар достигнет насыщения.
f - Относительная влажность воздуха - влажноcть воздуха, измеренная на высоте 2 м над землей.
Te - Эффективная температура - температура, которую ощущает одетый по сезону человек в тени. Характеристика душности погоды. При расчете учитывается влияние влажности воздуха и скорости ветра на теплоощущения человека.
Tes - Эффективная температура на солнце - температура, которую ощущает человек, с поправкой на солнечный нагрев. Характеристика знойности погоды. Зависит от высоты солнца над горизонтом, облачности и скорости ветра. Ночью, в пасмурную погоду, а также при ветре 12 м/с и более поправка равна нулю.
P - Атмосферное давление - приведенное к уровню моря атмосферное давление.
Po - Атмосферное давление - измеренное на уровне метеостанции атмосферное давление.
Tmin - Минимальная температура - минимум температуры воздуха на высоте 2 м над землей.
Tmax - Максимальная температура - максимум температуры воздуха на высоте 2 м над землей.
R - Количество осадков - Количество выпавших осадков за период времени, мм. При наведении курсора мыши на число - период времени, за который выпало указанное количество осадков.
R24 - Количество осадков - Количество выпавших осадков за 24 часа, мм.
S - Снежный покров - Высота снежного покрова, см. При наведении курсора мыши на число - состояние снежного покрова и степень покрытия местности в баллах.